Regional Weather Roundup
Issued by NWS

Home | Current Version | Previous Version | Text Only | Print | Product List | Glossary Off
Versions: 1 2 3 4 5 6 7 8 9 10 11 12 13 14 15 16 17 18 19 20 21 22 23 24 25 26 27 28 29 30 31 32 33 34 35 36 37 38 39 40 41 42 43 44 45 46 47 48 49 50

642
ASUS43 KMKX 130820
RWRWI

WISCONSIN REGIONAL WEATHER ROUNDUP
NATIONAL WEATHER SERVICE MILWAUKEE/SULLIVAN WI
200 AM CST WED DEC 13 2017

NOTE: "FAIR" INDICATES FEW OR NO CLOUDS BELOW 12,000 FEET WITH NO
SIGNIFICANT WEATHER AND/OR OBSTRUCTIONS TO VISIBILITY.

WIZ001-002-006>008-014>016-023>028-130900-
NORTHWEST WISCONSIN

CITY           SKY/WX    TMP DP  RH WIND       PRES   REMARKS
SUPERIOR ARPT  CLOUDY    17  12  82 E8        29.55F WCI   6
ASHLAND        CLOUDY    15  10  80 E7        29.59F WCI   5
HAYWARD        CLOUDY    16  10  77 SE8       29.53F WCI   5
SIREN          CLOUDY    19  14  81 SE6       29.50F WCI  11
CUMBERLAND     CLOUDY    18  12  79 SE10      29.51F WCI   6
RICE LAKE      CLOUDY    18  13  82 E7        29.54F WCI   8
CHETEK         CLOUDY    17  12  80 SE9       29.55F WCI   6
LADYSMITH      CLOUDY    17  13  86 SE9       29.58F WCI   5
EAU CLAIRE     MOCLDY    20  13  74 SE8       29.53F WCI  10
MENOMONIE      MOCLDY    21  15  77 SE12      29.53F WCI   9
NEW RICHMOND   CLOUDY    21  16  79 SE6       29.50F WCI  14
OSCEOLA        CLOUDY    22  18  83 SE12      29.51F WCI  11
$$

WIZ003>005-009-010-017-018-130900-
NORTH CENTRAL WISCONSIN

CITY           SKY/WX    TMP DP  RH WIND       PRES   REMARKS
MANITOWISH WTR FLURRIES  10   8  91 SE7       29.58F WCI   0
ARBOR VITAE    FLURRIES  13   9  85 SE7       29.59F WCI   2
WOODRUFF       FLURRIES  13   9  85 SE7       29.59F WCI   2
RHINELANDER    LGT SNOW  11   8  88 SE9       29.61F FOG     WCI  -2
EAGLE RIVER    LGT SNOW  10   5  79 SE7       29.61F WCI   0
LAND O LAKES   FLURRIES  11   6  81 SE3       29.64F
PHILLIPS       CLOUDY    12  10  89 SE7       29.56F WCI   1
TOMAHAWK       LGT SNOW  11   8  86 SE6       29.61F WCI   2
MEDFORD        CLOUDY    13  10  91 SE7       29.58F WCI   2
MERRILL        FLURRIES  12   9  87 SE9       29.64F WCI   0
$$

WIZ029-030-035-036-043>047-130900-
CENTRAL WISCONSIN

CITY           SKY/WX    TMP DP  RH WIND       PRES   REMARKS
WAUSAU         CLOUDY    13  10  88 SE10      29.64F WCI   0
MOSINEE        CLOUDY    14  12  92 SE9       29.66F FOG     WCI   2
MARSHFIELD     CLOUDY    15  12  88 SE9       29.62F WCI   3
STEVENS POINT  CLOUDY    13  10  86 SE5       29.68F WCI   6
WAUPACA        CLOUDY    18  11  75 SE5       29.73F WCI  11
WAUTOMA        CLOUDY    17  11  77 SE5       29.72F WCI  10
WISC RAPIDS    CLOUDY    16  11  80 SE7       29.68F WCI   6
CAMP DOUGLAS   CLOUDY    21  12  69 SE6       29.65F WCI  13
$$

WIZ011>013-019>022-031-037>040-048>050-130900-
NORTHEAST WISCONSIN

CITY           SKY/WX    TMP DP  RH WIND       PRES   REMARKS
ANTIGO         LGT SNOW  10   8  89 SE9       29.65F WCI  -3
SHAWANO        FLURRIES  16   9  72 CALM      29.75F
OCONTO         CLOUDY    14   6  70 CALM      29.77F
STURGEON BAY   CLOUDY    15   8  73 S5        29.78F WCI   8
GREEN BAY      CLOUDY    16   4  59 S5        29.77F WCI   9
MANITOWOC      FLURRIES  16   6  65 SE5       29.79F WCI   9
APPLETON       LGT SNOW  16  10  79 SE7       29.72F WCI   6
CLINTONVILLE   NOT AVBL
OSHKOSH        CLOUDY    16  10  77 SE8       29.74F WCI   5
$$

WIZ032>034-041-042-053>061-130900-
SOUTHWEST WISCONSIN

CITY           SKY/WX    TMP DP  RH WIND       PRES   REMARKS
LA CROSSE      CLOUDY    26  17  68 S12       29.61F WCI  16
SPARTA         CLOUDY    23  15  73 SE5       29.64F WCI  17
VIROQUA        CLOUDY    21  16  79 SE10      29.62F WCI  10
BOSCOBEL       CLOUDY    26  14  60 S5        29.68F WCI  20
PRAIRIE DU CHI PTCLDY    28  17  63 E8        29.66F WCI  20
PLATTEVILLE    CLOUDY    24  15  68 S10       29.70F WCI  13
$$

WIZ056-057-062-063-064-067-068-130900-
SOUTH CENTRAL WISCONSIN

CITY           SKY/WX    TMP DP  RH WIND       PRES   REMARKS
REEDSBURG      CLOUDY    23  12  63 SE6       29.68F WCI  15
BARABOO/DELLS  CLOUDY    22  12  64 S10       29.68F WCI  11
LONE ROCK      CLOUDY    23  16  74 E7        29.70F WCI  15
MINERAL POINT  CLOUDY    27  14  59 SE9       29.68F WCI  17
MADISON        CLOUDY    23  10  57 S13       29.72F WCI  11
MIDDLETON      CLOUDY    25  12  58 S8        29.72F WCI  16
WATERTOWN      CLOUDY    19  10  67 S7        29.76F WCI  10
MONROE         CLOUDY    25  10  54 S13       29.73F WCI  13
JANESVILLE     CLOUDY    27  10  50 S8        29.76F WCI  18
$$

WIZ051-052-058>065-066-070>072-130900-
SOUTHEAST WISCONSIN

CITY           SKY/WX    TMP DP  RH WIND       PRES   REMARKS
MILWAUKEE      FLURRIES  20   8  60 S6        29.81F WCI  12
WAUKESHA       CLOUDY    19   7  58 S3        29.79F
MILWAUKEE/TIMM CLOUDY    19   5  53 S5        29.81F WCI  13
RACINE         CLOUDY    20   6  55 S6        29.83F WCI  12
BURLINGTON       N/A    N/A N/A N/A MISG        N/A
KENOSHA        CLOUDY    21   9  59 S6        29.82F WCI  13
FOND DU LAC    CLOUDY    18   8  65 SE9       29.75F WCI   7
SHEBOYGAN      LGT SNOW  16  10  77 S6        29.78F WCI   7
WEST BEND      CLOUDY    18   9  68 CALM      29.78F
JUNEAU         CLOUDY    18  10  69 SE8       29.76F WCI   8
$$

LSZ147-162-130900-
LAKE SUPERIOR

STATION/POSITION TIME  TEMP    WIND        PRES    WAVE
                       AIR SEA DIR/SP/G            HT/PER
                 (UTC) (F)     (DEG/KT/KT) (MB)    (FT/S)
DEVILS ISLAND    0800   20     130/ 10/ 14 1004.0F
SAXON HARBOR     0740   16                 1002.7F
$$

LMZ867-665-643>646-130900-
LAKE MICHIGAN

STATION/POSITION TIME  TEMP    WIND        PRES    WAVE
                       AIR SEA DIR/SP/G            HT/PER
                 (UTC) (F)     (DEG/KT/KT) (MB)    (FT/S)
NORTHPORT PIER   0741   15      CALM  /  1 1009.1F
KEWAUNEE LAKESHO 0754   15     210/  1/  4 1008.2F
SHEBOYGAN LAKESH 0800   17     210/  8/  9 1010.3F
PORT WASHINGTON  0740   19     260/  2/  4 1010.8F
KENOSHA   LAKESH 0800   21     210/  7/  9 1010.2
$$

TC  - TEMPERATURE IN CELSIUS
VSB - VISIBILITY IN STATUTE MILES
WCI - WIND CHILL INDEX
HX  - HEAT INDEX





USA.gov is the U.S. government's official web portal to all federal, state and local government web resources and services.